Regional Weather Roundup
Issued by NWS Little Rock, AR

Home | Current Version | Previous Version | Text Only | Print | Product List | Glossary Off
Versions: 1 2 3 4 5 6 7 8 9 10 11 12 13 14 15 16 17 18 19 20 21 22 23 24 25 26 27 28 29 30 31

000
ASUS44 KLZK 252105
RWRLZK

WEATHER ROUNDUP FOR ARKANSAS
NATIONAL WEATHER SERVICE LITTLE ROCK AR
400 PM CDT THU MAY 25 2017

NOTE: "FAIR" INDICATES FEW OR NO CLOUDS BELOW 12,000 FEET WITH NO
SIGNIFICANT WEATHER AND/OR OBSTRUCTIONS TO VISIBILITY.

ARZ001-003-010-029-252200-
NORTHWEST ARKANSAS

CITY           SKY/WX    TMP DP  RH WIND       PRES   REMARKS
FAYETTEVILLE   SUNNY     78  57  48 S15       29.69F
FORT SMITH     SUNNY     84  52  33 SE8       29.67F
HARRISON       SUNNY     76  54  46 S13       29.72F
BENTONVILLE    SUNNY     79  54  41 S9        29.69F
ROGERS         SUNNY     79  57  46 S12       29.69F
SILOAM SPGS    SUNNY     79  55  44 S12G22    29.67F
HIGHFILL       SUNNY     79  56  45 S16       29.69
SPRINGDALE     MOSUNNY   79  55  44 S14       29.71F
$$

ARZ004-005-016-252200-
NORTH CENTRAL ARKANSAS

CITY           SKY/WX    TMP DP  RH WIND       PRES   REMARKS
BATESVILLE     SUNNY     79  54  41 S9        29.75F
FLIPPIN        SUNNY     79  52  38 S6        29.70F
MTN HOME       SUNNY     77  52  41 S9        29.72
$$

ARZ040-041-252200-
WEST CENTRAL ARKANSAS

CITY           SKY/WX    TMP DP  RH WIND       PRES   REMARKS
MENA           SUNNY     82  59  44 S7        29.73
MOUNT IDA      SUNNY     80  52  37 VRB6      29.72F
$$

ARZ009-017-025-026-028-252200-
NORTHEAST ARKANSAS

CITY           SKY/WX    TMP DP  RH WIND       PRES   REMARKS
JONESBORO      SUNNY     78  53  41 SW14      29.76F
WALNUT RIDGE   SUNNY     75  52  43 S6G17     29.75F
BLYTHEVILLE    SUNNY     77  51  40 W8G18     29.77S
$$

ARZ022-023-033-042-044-252200-
CENTRAL ARKANSAS

CITY           SKY/WX    TMP DP  RH WIND       PRES   REMARKS
LITTLE ROCK    MOSUNNY   79  56  45 S13       29.76F
N LITTLE ROCK    N/A     79  56  45 SW7       29.76F
JACKSONVILLE   SUNNY     81  56  42 S10       29.75F
CONWAY           N/A     81  54  39 S10G20    29.73F
SEARCY         SUNNY     78  57  48 S10G16    29.78S
HOT SPRINGS    SUNNY     81  56  42 S12       29.75F
RUSSELLVILLE   SUNNY     80  53  39 S6        29.72F
CLINTON        FAIR      77  55  47 VRB7G14   29.74F
$$

ARZ036-252200-
EAST ARKANSAS

CITY           SKY/WX    TMP DP  RH WIND       PRES   REMARKS
WEST MEMPHIS   SUNNY     75  51  43 SW6       29.77F
$$

ARZ050-053-066-070-073-252200-
SOUTHWEST ARKANSAS

CITY           SKY/WX    TMP DP  RH WIND       PRES   REMARKS
CAMDEN         SUNNY     82  54  36 S8        29.76F
TEXARKANA      SUNNY     84  62  47 S14       29.73F HX  85
EL DORADO      SUNNY     82  58  43 S9G16     29.77F
DE QUEEN       SUNNY     84  61  45 S9        29.69F
$$

ARZ056-057-069-252200-
SOUTHEAST ARKANSAS

CITY           SKY/WX    TMP DP  RH WIND       PRES   REMARKS
PINE BLUFF     SUNNY     79  56  45 S14       29.78F
STUTTGART      SUNNY     79  50  36 S13G20    29.79S
MONTICELLO     SUNNY     79  55  43 S8        29.79F

$$






USA.gov is the U.S. government's official web portal to all federal, state and local government web resources and services.